owner,sensor,date,latitude,longitude,vertical_datum,wind_speed,wind_to_direction,wind_speed_of_gust,qcFlag 
COMPS,ioos:station:USF.COMPS:ARP:1,2014-04-01T00:00:00Z,28.4330,-82.6670,10.0,0.0,107.91,0.09,'1114422,1111122,1111122' 
COMPS,ioos:station:USF.COMPS:ARP:1,2014-04-01T00:06:00Z,28.4330,-82.6670,10.0,0.14,67.66,0.29,'1111122,1111122,1111122' 
COMPS,ioos:station:USF.COMPS:ARP:1,2014-04-01T00:12:00Z,28.4330,-82.6670,10.0,0.42,73.08,0.68,'1111122,1111122,1111122' 
COMPS,ioos:station:USF.COMPS:ARP:1,2014-04-01T00:18:00Z,28.4330,-82.6670,10.0,0.57,67.62,0.68,'1111122,1111122,1111122' 
COMPS,ioos:station:USF.COMPS:ARP:1,2014-04-01T00:24:00Z,28.4330,-82.6670,10.0,0.46,66.01,0.68,'1111122,1111122,1111122' 
COMPS,ioos:station:USF.COMPS:ARP:1,2014-04-01T00:30:00Z,28.4330,-82.6670,10.0,0.48,76.55,0.68,'1111122,1111122,1111122' 
COMPS,ioos:station:USF.COMPS:ARP:1,2014-04-01T00:36:00Z,28.4330,-82.6670,10.0,0.5,80.92,0.58,'1111122,1111122,1111122' 
COMPS,ioos:station:USF.COMPS:ARP:1,2014-04-01T00:42:00Z,28.4330,-82.6670,10.0,0.55,76.19,0.68,'1111122,1111122,1111122' 
COMPS,ioos:station:USF.COMPS:ARP:1,2014-04-01T00:48:00Z,28.4330,-82.6670,10.0,0.77,74.28,1.07,'1111122,1111122,1111122' 
COMPS,ioos:station:USF.COMPS:ARP:1,2014-04-01T00:54:00Z,28.4330,-82.6670,10.0,0.66,59.86,0.88,'1111122,1111122,1111122' 
COMPS,ioos:station:USF.COMPS:ARP:1,2014-04-01T01:00:00Z,28.4330,-82.6670,10.0,0.51,83.72,0.88,'1111122,1111122,1111122' 
COMPS,ioos:station:USF.COMPS:ARP:1,2014-04-01T01:06:00Z,28.4330,-82.6670,10.0,0.37,65.84,0.49,'1111122,1111122,1111122' 
COMPS,ioos:station:USF.COMPS:ARP:1,2014-04-01T01:12:00Z,28.4330,-82.6670,10.0,0.33,92.89,0.49,'1111122,1111122,1111122' 
COMPS,ioos:station:USF.COMPS:ARP:1,2014-04-01T01:18:00Z,28.4330,-82.6670,10.0,0.06,56.9,0.29,'1111122,1111122,1111122' 
COMPS,ioos:station:USF.COMPS:ARP:1,2014-04-01T01:24:00Z,28.4330,-82.6670,10.0,0.06,31.38,0.29,'1111122,1111122,1111122' 
COMPS,ioos:station:USF.COMPS:ARP:1,2014-04-01T01:30:00Z,28.4330,-82.6670,10.0,0.03,44.39,0.29,'1111122,1111122,1111122' 
COMPS,ioos:station:USF.COMPS:ARP:1,2014-04-01T01:36:00Z,28.4330,-82.6670,10.0,0.4,58.08,0.58,'1111122,1111122,1111122' 
COMPS,ioos:station:USF.COMPS:ARP:1,2014-04-01T01:42:00Z,28.4330,-82.6670,10.0,0.54,68.27,0.68,'1111122,1111122,1111122' 
COMPS,ioos:station:USF.COMPS:ARP:1,2014-04-01T01:48:00Z,28.4330,-82.6670,10.0,0.6,67.0,0.78,'1111122,1111122,1111122' 
COMPS,ioos:station:USF.COMPS:ARP:1,2014-04-01T01:54:00Z,28.4330,-82.6670,10.0,0.51,74.6,0.68,'1111122,1111122,1111122' 
COMPS,ioos:station:USF.COMPS:ARP:1,2014-04-01T02:00:00Z,28.4330,-82.6670,10.0,0.11,122.0,0.39,'1111122,1111122,1111122' 
COMPS,ioos:station:USF.COMPS:ARP:1,2014-04-01T02:06:00Z,28.4330,-82.6670,10.0,0.31,73.54,0.68,'1111122,1111122,1111122' 
COMPS,ioos:station:USF.COMPS:ARP:1,2014-04-01T02:12:00Z,28.4330,-82.6670,10.0,0.57,93.65,0.78,'1111122,1111122,1111122' 
COMPS,ioos:station:USF.COMPS:ARP:1,2014-04-01T02:18:00Z,28.4330,-82.6670,10.0,0.71,83.7,0.97,'1111122,1111122,1111122' 
COMPS,ioos:station:USF.COMPS:ARP:1,2014-04-01T02:24:00Z,28.4330,-82.6670,10.0,0.76,79.78,0.97,'1111122,1111122,1111122' 
COMPS,ioos:station:USF.COMPS:ARP:1,2014-04-01T02:30:00Z,28.4330,-82.6670,10.0,0.49,86.6,0.68,'1111122,1111122,1111122' 
COMPS,ioos:station:USF.COMPS:ARP:1,2014-04-01T02:36:00Z,28.4330,-82.6670,10.0,0.41,79.7,0.68,'1111122,1111122,1111122' 
COMPS,ioos:station:USF.COMPS:ARP:1,2014-04-01T02:42:00Z,28.4330,-82.6670,10.0,0.53,72.85,0.68,'1111122,1111122,1111122' 
COMPS,ioos:station:USF.COMPS:ARP:1,2014-04-01T02:48:00Z,28.4330,-82.6670,10.0,0.74,64.37,0.97,'1111122,1111122,1111122' 
COMPS,ioos:station:USF.COMPS:ARP:1,2014-04-01T02:54:00Z,28.4330,-82.6670,10.0,0.91,77.61,1.17,'1111122,1111122,1111122' 
COMPS,ioos:station:USF.COMPS:ARP:1,2014-04-01T03:00:00Z,28.4330,-82.6670,10.0,0.72,75.59,0.97,'1111122,1111122,1111122' 
COMPS,ioos:station:USF.COMPS:ARP:1,2014-04-01T03:06:00Z,28.4330,-82.6670,10.0,0.55,85.43,0.97,'1111122,1111122,1111122' 
COMPS,ioos:station:USF.COMPS:ARP:1,2014-04-01T03:12:00Z,28.4330,-82.6670,10.0,0.53,67.25,0.68,'1111122,1111122,1111122' 
COMPS,ioos:station:USF.COMPS:ARP:1,2014-04-01T03:18:00Z,28.4330,-82.6670,10.0,0.56,72.56,0.68,'1111122,1111122,1111122' 
COMPS,ioos:station:USF.COMPS:ARP:1,2014-04-01T03:24:00Z,28.4330,-82.6670,10.0,0.57,73.28,0.78,'1111122,1111122,1111122' 
COMPS,ioos:station:USF.COMPS:ARP:1,2014-04-01T03:30:00Z,28.4330,-82.6670,10.0,0.63,75.39,0.78,'1111122,1111122,1111122' 
COMPS,ioos:station:USF.COMPS:ARP:1,2014-04-01T03:36:00Z,28.4330,-82.6670,10.0,0.63,77.89,0.88,'1111122,1111122,1111122' 
COMPS,ioos:station:USF.COMPS:ARP:1,2014-04-01T03:42:00Z,28.4330,-82.6670,10.0,0.7,85.74,0.88,'1111122,1111122,1111122' 
COMPS,ioos:station:USF.COMPS:ARP:1,2014-04-01T03:48:00Z,28.4330,-82.6670,10.0,0.59,89.7,0.68,'1111122,1111122,1111122' 
COMPS,ioos:station:USF.COMPS:ARP:1,2014-04-01T03:54:00Z,28.4330,-82.6670,10.0,0.58,71.89,0.78,'1111122,1111122,1111122' 
COMPS,ioos:station:USF.COMPS:ARP:1,2014-04-01T04:00:00Z,28.4330,-82.6670,10.0,0.6,76.54,0.78,'1111122,1111122,1111122' 
COMPS,ioos:station:USF.COMPS:ARP:1,2014-04-01T04:06:00Z,28.4330,-82.6670,10.0,0.86,68.75,1.17,'1111122,1111122,1111122' 
COMPS,ioos:station:USF.COMPS:ARP:1,2014-04-01T04:12:00Z,28.4330,-82.6670,10.0,0.73,79.12,0.88,'1111122,1111122,1111122' 
COMPS,ioos:station:USF.COMPS:ARP:1,2014-04-01T04:18:00Z,28.4330,-82.6670,10.0,0.69,66.34,0.88,'1111122,1111122,1111122' 
COMPS,ioos:station:USF.COMPS:ARP:1,2014-04-01T04:24:00Z,28.4330,-82.6670,10.0,0.69,79.83,0.88,'1111122,1111122,1111122' 
COMPS,ioos:station:USF.COMPS:ARP:1,2014-04-01T04:30:00Z,28.4330,-82.6670,10.0,0.75,76.24,0.88,'1111122,1111122,1111122' 
COMPS,ioos:station:USF.COMPS:ARP:1,2014-04-01T04:36:00Z,28.4330,-82.6670,10.0,0.66,88.81,0.88,'1111122,1111122,1111122' 
COMPS,ioos:station:USF.COMPS:ARP:1,2014-04-01T04:42:00Z,28.4330,-82.6670,10.0,0.63,88.72,0.78,'1111122,1111122,1111122' 
COMPS,ioos:station:USF.COMPS:ARP:1,2014-04-01T04:48:00Z,28.4330,-82.6670,10.0,0.69,81.81,0.97,'1111122,1111122,1111122' 
COMPS,ioos:station:USF.COMPS:ARP:1,2014-04-01T04:54:00Z,28.4330,-82.6670,10.0,0.63,81.47,0.88,'1111122,1111122,1111122' 
COMPS,ioos:station:USF.COMPS:ARP:1,2014-04-01T05:00:00Z,28.4330,-82.6670,10.0,0.6,90.11,0.88,'1111122,1111122,1111122' 
COMPS,ioos:station:USF.COMPS:ARP:1,2014-04-01T05:06:00Z,28.4330,-82.6670,10.0,0.65,96.75,0.88,'1111122,1111122,1111122' 
COMPS,ioos:station:USF.COMPS:ARP:1,2014-04-01T05:12:00Z,28.4330,-82.6670,10.0,0.66,89.2,0.78,'1111122,1111122,1111122' 
COMPS,ioos:station:USF.COMPS:ARP:1,2014-04-01T05:18:00Z,28.4330,-82.6670,10.0,0.51,97.15,0.68,'1111122,1111122,1111122' 
COMPS,ioos:station:USF.COMPS:ARP:1,2014-04-01T05:24:00Z,28.4330,-82.6670,10.0,0.66,105.17,0.88,'1111122,1111122,1111122' 
COMPS,ioos:station:USF.COMPS:ARP:1,2014-04-01T05:30:00Z,28.4330,-82.6670,10.0,0.54,91.42,0.78,'1111122,1111122,1111122' 
COMPS,ioos:station:USF.COMPS:ARP:1,2014-04-01T05:36:00Z,28.4330,-82.6670,10.0,0.6,82.94,0.78,'1111122,1111122,1111122' 
COMPS,ioos:station:USF.COMPS:ARP:1,2014-04-01T05:42:00Z,28.4330,-82.6670,10.0,0.46,81.28,0.68,'1111122,1111122,1111122' 
COMPS,ioos:station:USF.COMPS:ARP:1,2014-04-01T05:48:00Z,28.4330,-82.6670,10.0,0.14,91.63,0.39,'1111122,1111122,1111122' 
COMPS,ioos:station:USF.COMPS:ARP:1,2014-04-01T05:54:00Z,28.4330,-82.6670,10.0,0.13,108.28,0.49,'1111122,1111122,1111122' 
COMPS,ioos:station:USF.COMPS:ARP:1,2014-04-01T06:00:00Z,28.4330,-82.6670,10.0,0.36,76.53,0.58,'1111122,1111122,1111122' 
COMPS,ioos:station:USF.COMPS:ARP:1,2014-04-01T06:06:00Z,28.4330,-82.6670,10.0,0.61,80.45,0.78,'1111122,1111122,1111122' 
COMPS,ioos:station:USF.COMPS:ARP:1,2014-04-01T06:12:00Z,28.4330,-82.6670,10.0,0.64,79.56,0.78,'1111122,1111122,1111122' 
COMPS,ioos:station:USF.COMPS:ARP:1,2014-04-01T06:18:00Z,28.4330,-82.6670,10.0,0.76,65.64,0.88,'1111122,1111122,1111122' 
COMPS,ioos:station:USF.COMPS:ARP:1,2014-04-01T06:24:00Z,28.4330,-82.6670,10.0,0.49,81.07,0.68,'1111122,1111122,1111122' 
COMPS,ioos:station:USF.COMPS:ARP:1,2014-04-01T06:30:00Z,28.4330,-82.6670,10.0,0.3,90.11,0.49,'1111122,1111122,1111122' 
COMPS,ioos:station:USF.COMPS:ARP:1,2014-04-01T06:36:00Z,28.4330,-82.6670,10.0,0.37,103.91,0.49,'1111122,1111122,1111122' 
COMPS,ioos:station:USF.COMPS:ARP:1,2014-04-01T06:42:00Z,28.4330,-82.6670,10.0,0.48,118.55,0.78,'1111122,1111122,1111122' 
COMPS,ioos:station:USF.COMPS:ARP:1,2014-04-01T06:48:00Z,28.4330,-82.6670,10.0,0.72,145.52,1.66,'1111122,1111122,1111122' 
COMPS,ioos:station:USF.COMPS:ARP:1,2014-04-01T06:54:00Z,28.4330,-82.6670,10.0,0.75,124.78,1.27,'1111122,1111122,1111122' 
COMPS,ioos:station:USF.COMPS:ARP:1,2014-04-01T07:00:00Z,28.4330,-82.6670,10.0,0.39,113.51,0.68,'1111122,1111122,1111122' 
COMPS,ioos:station:USF.COMPS:ARP:1,2014-04-01T07:06:00Z,28.4330,-82.6670,10.0,1.03,92.86,1.27,'1111122,1111122,1111122' 
COMPS,ioos:station:USF.COMPS:ARP:1,2014-04-01T07:12:00Z,28.4330,-82.6670,10.0,0.9,109.48,1.37,'1111122,1111122,1111122' 
COMPS,ioos:station:USF.COMPS:ARP:1,2014-04-01T07:18:00Z,28.4330,-82.6670,10.0,1.0,104.56,1.56,'1111122,1111122,1111122' 
COMPS,ioos:station:USF.COMPS:ARP:1,2014-04-01T07:24:00Z,28.4330,-82.6670,10.0,1.28,92.95,1.66,'1111122,1111122,1111122' 
COMPS,ioos:station:USF.COMPS:ARP:1,2014-04-01T07:30:00Z,28.4330,-82.6670,10.0,1.02,87.8,1.27,'1111122,1111122,1111122' 
COMPS,ioos:station:USF.COMPS:ARP:1,2014-04-01T07:36:00Z,28.4330,-82.6670,10.0,0.87,90.52,1.07,'1111122,1111122,1111122' 
COMPS,ioos:station:USF.COMPS:ARP:1,2014-04-01T07:42:00Z,28.4330,-82.6670,10.0,1.89,100.64,2.64,'1111122,1111122,1111122' 
COMPS,ioos:station:USF.COMPS:ARP:1,2014-04-01T07:48:00Z,28.4330,-82.6670,10.0,2.0,101.52,3.23,'1111122,1111122,1111122' 
COMPS,ioos:station:USF.COMPS:ARP:1,2014-04-01T07:54:00Z,28.4330,-82.6670,10.0,1.86,101.1,2.93,'1111122,1111122,1111122' 
COMPS,ioos:station:USF.COMPS:ARP:1,2014-04-01T08:00:00Z,28.4330,-82.6670,10.0,1.94,94.46,2.54,'1111122,1111122,1111122' 
COMPS,ioos:station:USF.COMPS:ARP:1,2014-04-01T08:06:00Z,28.4330,-82.6670,10.0,1.56,98.51,2.45,'1111122,1111122,1111122' 
COMPS,ioos:station:USF.COMPS:ARP:1,2014-04-01T08:12:00Z,28.4330,-82.6670,10.0,2.02,103.53,3.23,'1111122,1111122,1111122' 
COMPS,ioos:station:USF.COMPS:ARP:1,2014-04-01T08:18:00Z,28.4330,-82.6670,10.0,1.81,107.23,2.64,'1111122,1111122,1111122' 
COMPS,ioos:station:USF.COMPS:ARP:1,2014-04-01T08:24:00Z,28.4330,-82.6670,10.0,1.66,108.7,3.13,'1111122,1111122,1111122' 
COMPS,ioos:station:USF.COMPS:ARP:1,2014-04-01T08:30:00Z,28.4330,-82.6670,10.0,1.74,112.66,3.03,'1111122,1111122,1111122' 
COMPS,ioos:station:USF.COMPS:ARP:1,2014-04-01T08:36:00Z,28.4330,-82.6670,10.0,1.95,104.25,2.74,'1111122,1111122,1111122' 
COMPS,ioos:station:USF.COMPS:ARP:1,2014-04-01T08:42:00Z,28.4330,-82.6670,10.0,1.94,103.71,3.42,'1111122,1111122,1111122' 
COMPS,ioos:station:USF.COMPS:ARP:1,2014-04-01T08:48:00Z,28.4330,-82.6670,10.0,1.85,99.98,2.45,'1111122,1111122,1111122' 
COMPS,ioos:station:USF.COMPS:ARP:1,2014-04-01T08:54:00Z,28.4330,-82.6670,10.0,2.13,102.38,2.93,'1111122,1111122,1111122' 
COMPS,ioos:station:USF.COMPS:ARP:1,2014-04-01T09:00:00Z,28.4330,-82.6670,10.0,1.95,100.34,2.74,'1111122,1111122,1111122' 
COMPS,ioos:station:USF.COMPS:ARP:1,2014-04-01T09:06:00Z,28.4330,-82.6670,10.0,1.87,111.24,2.93,'1111122,1111122,1111122' 
COMPS,ioos:station:USF.COMPS:ARP:1,2014-04-01T09:12:00Z,28.4330,-82.6670,10.0,1.86,109.86,3.03,'1111122,1111122,1111122' 
COMPS,ioos:station:USF.COMPS:ARP:1,2014-04-01T09:18:00Z,28.4330,-82.6670,10.0,1.72,111.67,3.03,'1111122,1111122,1111122' 
COMPS,ioos:station:USF.COMPS:ARP:1,2014-04-01T09:24:00Z,28.4330,-82.6670,10.0,1.7,113.03,2.45,'1111122,1111122,1111122' 
COMPS,ioos:station:USF.COMPS:ARP:1,2014-04-01T09:30:00Z,28.4330,-82.6670,10.0,1.81,109.9,2.74,'1111122,1111122,1111122' 
COMPS,ioos:station:USF.COMPS:ARP:1,2014-04-01T09:36:00Z,28.4330,-82.6670,10.0,1.77,102.73,2.64,'1111122,1111122,1111122' 
COMPS,ioos:station:USF.COMPS:ARP:1,2014-04-01T09:42:00Z,28.4330,-82.6670,10.0,1.76,111.43,2.45,'1111122,1111122,1111122' 
COMPS,ioos:station:USF.COMPS:ARP:1,2014-04-01T09:48:00Z,28.4330,-82.6670,10.0,1.82,107.63,3.03,'1111122,1111122,1111122' 
COMPS,ioos:station:USF.COMPS:ARP:1,2014-04-01T09:54:00Z,28.4330,-82.6670,10.0,1.51,88.57,2.05,'1111122,1111122,1111122' 
COMPS,ioos:station:USF.COMPS:ARP:1,2014-04-01T10:00:00Z,28.4330,-82.6670,10.0,1.34,91.92,1.66,'1111122,1111122,1111122' 
COMPS,ioos:station:USF.COMPS:ARP:1,2014-04-01T10:06:00Z,28.4330,-82.6670,10.0,1.29,90.42,1.76,'1111122,1111122,1111122' 
COMPS,ioos:station:USF.COMPS:ARP:1,2014-04-01T10:12:00Z,28.4330,-82.6670,10.0,1.46,85.89,2.15,'1111122,1111122,1111122' 
COMPS,ioos:station:USF.COMPS:ARP:1,2014-04-01T10:18:00Z,28.4330,-82.6670,10.0,1.51,92.06,2.05,'1111122,1111122,1111122' 
COMPS,ioos:station:USF.COMPS:ARP:1,2014-04-01T10:24:00Z,28.4330,-82.6670,10.0,1.66,88.24,2.05,'1111122,1111122,1111122' 
COMPS,ioos:station:USF.COMPS:ARP:1,2014-04-01T10:30:00Z,28.4330,-82.6670,10.0,1.66,89.26,2.35,'1111122,1111122,1111122' 
COMPS,ioos:station:USF.COMPS:ARP:1,2014-04-01T10:36:00Z,28.4330,-82.6670,10.0,1.55,85.68,2.35,'1111122,1111122,1111122' 
COMPS,ioos:station:USF.COMPS:ARP:1,2014-04-01T10:42:00Z,28.4330,-82.6670,10.0,1.63,90.94,2.05,'1111122,1111122,1111122' 
COMPS,ioos:station:USF.COMPS:ARP:1,2014-04-01T10:48:00Z,28.4330,-82.6670,10.0,1.46,89.86,2.05,'1111122,1111122,1111122' 
COMPS,ioos:station:USF.COMPS:ARP:1,2014-04-01T10:54:00Z,28.4330,-82.6670,10.0,1.92,93.02,2.45,'1111122,1111122,1111122' 
COMPS,ioos:station:USF.COMPS:ARP:1,2014-04-01T11:00:00Z,28.4330,-82.6670,10.0,1.72,92.72,2.25,'1111122,1111122,1111122' 
COMPS,ioos:station:USF.COMPS:ARP:1,2014-04-01T11:06:00Z,28.4330,-82.6670,10.0,1.76,85.15,2.25,'1111122,1111122,1111122' 
COMPS,ioos:station:USF.COMPS:ARP:1,2014-04-01T11:12:00Z,28.4330,-82.6670,10.0,1.63,93.78,2.35,'1111122,1111122,1111122' 
COMPS,ioos:station:USF.COMPS:ARP:1,2014-04-01T11:18:00Z,28.4330,-82.6670,10.0,1.65,98.44,1.95,'1111122,1111122,1111122' 
COMPS,ioos:station:USF.COMPS:ARP:1,2014-04-01T11:24:00Z,28.4330,-82.6670,10.0,1.51,93.13,1.95,'1111122,1111122,1111122' 
COMPS,ioos:station:USF.COMPS:ARP:1,2014-04-01T11:30:00Z,28.4330,-82.6670,10.0,1.63,95.3,2.15,'1111122,1111122,1111122' 
COMPS,ioos:station:USF.COMPS:ARP:1,2014-04-01T11:36:00Z,28.4330,-82.6670,10.0,1.78,94.06,2.45,'1111122,1111122,1111122' 
COMPS,ioos:station:USF.COMPS:ARP:1,2014-04-01T11:42:00Z,28.4330,-82.6670,10.0,1.6,96.66,2.05,'1111122,1111122,1111122' 
COMPS,ioos:station:USF.COMPS:ARP:1,2014-04-01T11:48:00Z,28.4330,-82.6670,10.0,1.48,97.95,1.95,'1111122,1111122,1111122' 
COMPS,ioos:station:USF.COMPS:ARP:1,2014-04-01T11:54:00Z,28.4330,-82.6670,10.0,1.54,98.69,2.15,'1111122,1111122,1111122' 
COMPS,ioos:station:USF.COMPS:ARP:1,2014-04-01T12:00:00Z,28.4330,-82.6670,10.0,1.39,91.44,2.05,'1111122,1111122,1111122' 
COMPS,ioos:station:USF.COMPS:ARP:1,2014-04-01T12:06:00Z,28.4330,-82.6670,10.0,1.45,91.51,2.15,'1111122,1111122,1111122' 
COMPS,ioos:station:USF.COMPS:ARP:1,2014-04-01T12:12:00Z,28.4330,-82.6670,10.0,1.51,92.61,2.15,'1111122,1111122,1111122' 
COMPS,ioos:station:USF.COMPS:ARP:1,2014-04-01T12:18:00Z,28.4330,-82.6670,10.0,1.3,93.77,1.95,'1111122,1111122,1111122' 
COMPS,ioos:station:USF.COMPS:ARP:1,2014-04-01T12:24:00Z,28.4330,-82.6670,10.0,1.48,89.03,2.15,'1111122,1111122,1111122' 
COMPS,ioos:station:USF.COMPS:ARP:1,2014-04-01T12:30:00Z,28.4330,-82.6670,10.0,1.83,88.18,2.54,'1111122,1111122,1111122' 
COMPS,ioos:station:USF.COMPS:ARP:1,2014-04-01T12:36:00Z,28.4330,-82.6670,10.0,1.71,94.35,2.35,'1111122,1111122,1111122' 
COMPS,ioos:station:USF.COMPS:ARP:1,2014-04-01T12:42:00Z,28.4330,-82.6670,10.0,1.6,96.26,2.45,'1111122,1111122,1111122' 
COMPS,ioos:station:USF.COMPS:ARP:1,2014-04-01T12:48:00Z,28.4330,-82.6670,10.0,2.03,100.96,2.84,'1111122,1111122,1111122' 
COMPS,ioos:station:USF.COMPS:ARP:1,2014-04-01T12:54:00Z,28.4330,-82.6670,10.0,2.11,94.03,3.23,'1111122,1111122,1111122' 
COMPS,ioos:station:USF.COMPS:ARP:1,2014-04-01T13:00:00Z,28.4330,-82.6670,10.0,1.7,91.07,2.64,'1111122,1111122,1111122' 
COMPS,ioos:station:USF.COMPS:ARP:1,2014-04-01T13:06:00Z,28.4330,-82.6670,10.0,1.76,97.21,2.84,'1111122,1111122,1111122' 
COMPS,ioos:station:USF.COMPS:ARP:1,2014-04-01T13:12:00Z,28.4330,-82.6670,10.0,1.46,94.29,1.86,'1111122,1111122,1111122' 
COMPS,ioos:station:USF.COMPS:ARP:1,2014-04-01T13:18:00Z,28.4330,-82.6670,10.0,1.86,96.85,2.84,'1111122,1111122,1111122' 
COMPS,ioos:station:USF.COMPS:ARP:1,2014-04-01T13:24:00Z,28.4330,-82.6670,10.0,2.06,96.32,2.93,'1111122,1111122,1111122' 
COMPS,ioos:station:USF.COMPS:ARP:1,2014-04-01T13:30:00Z,28.4330,-82.6670,10.0,1.96,103.36,3.13,'1111122,1111122,1111122' 
COMPS,ioos:station:USF.COMPS:ARP:1,2014-04-01T13:36:00Z,28.4330,-82.6670,10.0,2.01,101.96,3.03,'1111122,1111122,1111122' 
COMPS,ioos:station:USF.COMPS:ARP:1,2014-04-01T13:42:00Z,28.4330,-82.6670,10.0,1.43,106.26,2.64,'1111122,1111122,1111122' 
COMPS,ioos:station:USF.COMPS:ARP:1,2014-04-01T13:48:00Z,28.4330,-82.6670,10.0,1.76,107.95,3.23,'1111122,1111122,1111122' 
COMPS,ioos:station:USF.COMPS:ARP:1,2014-04-01T13:54:00Z,28.4330,-82.6670,10.0,1.43,108.53,2.84,'1111122,1111122,1111122' 
COMPS,ioos:station:USF.COMPS:ARP:1,2014-04-01T14:00:00Z,28.4330,-82.6670,10.0,1.08,109.47,2.15,'1111122,1111122,1111122' 
COMPS,ioos:station:USF.COMPS:ARP:1,2014-04-01T14:06:00Z,28.4330,-82.6670,10.0,1.17,126.88,2.15,'1111122,1111122,1111122' 
COMPS,ioos:station:USF.COMPS:ARP:1,2014-04-01T14:12:00Z,28.4330,-82.6670,10.0,1.44,122.83,3.52,'1111122,1111122,1111122' 
COMPS,ioos:station:USF.COMPS:ARP:1,2014-04-01T14:18:00Z,28.4330,-82.6670,10.0,1.38,112.61,2.35,'1111122,1111122,1111122' 
COMPS,ioos:station:USF.COMPS:ARP:1,2014-04-01T14:24:00Z,28.4330,-82.6670,10.0,1.05,110.05,2.35,'1111122,1111122,1111122' 
COMPS,ioos:station:USF.COMPS:ARP:1,2014-04-01T14:30:00Z,28.4330,-82.6670,10.0,1.78,113.06,3.03,'1111122,1111122,1111122' 
COMPS,ioos:station:USF.COMPS:ARP:1,2014-04-01T14:36:00Z,28.4330,-82.6670,10.0,1.69,135.85,2.74,'1111122,1111122,1111122' 
COMPS,ioos:station:USF.COMPS:ARP:1,2014-04-01T14:42:00Z,28.4330,-82.6670,10.0,1.29,145.02,2.25,'1111122,1111122,1111122' 
COMPS,ioos:station:USF.COMPS:ARP:1,2014-04-01T14:48:00Z,28.4330,-82.6670,10.0,1.64,140.83,2.84,'1111122,1111122,1111122' 
COMPS,ioos:station:USF.COMPS:ARP:1,2014-04-01T14:54:00Z,28.4330,-82.6670,10.0,1.45,136.4,3.03,'1111122,1111122,1111122' 
COMPS,ioos:station:USF.COMPS:ARP:1,2014-04-01T15:00:00Z,28.4330,-82.6670,10.0,1.7,162.08,3.62,'1111122,1111122,1111122' 
COMPS,ioos:station:USF.COMPS:ARP:1,2014-04-01T15:06:00Z,28.4330,-82.6670,10.0,2.17,104.77,3.42,'1111122,1111122,1111122' 
COMPS,ioos:station:USF.COMPS:ARP:1,2014-04-01T15:12:00Z,28.4330,-82.6670,10.0,1.57,80.35,3.03,'1111122,1111122,1111122' 
COMPS,ioos:station:USF.COMPS:ARP:1,2014-04-01T15:18:00Z,28.4330,-82.6670,10.0,0.87,91.82,2.35,'1111122,1111122,1111122' 
COMPS,ioos:station:USF.COMPS:ARP:1,2014-04-01T15:24:00Z,28.4330,-82.6670,10.0,0.28,113.0,0.97,'1111122,1111122,1111122' 
COMPS,ioos:station:USF.COMPS:ARP:1,2014-04-01T15:30:00Z,28.4330,-82.6670,10.0,1.45,93.74,2.54,'1111122,1111122,1111122' 
COMPS,ioos:station:USF.COMPS:ARP:1,2014-04-01T15:36:00Z,28.4330,-82.6670,10.0,1.54,88.05,2.35,'1111122,1111122,1111122' 
COMPS,ioos:station:USF.COMPS:ARP:1,2014-04-01T15:42:00Z,28.4330,-82.6670,10.0,0.93,93.19,1.95,'1111122,1111122,1111122' 
COMPS,ioos:station:USF.COMPS:ARP:1,2014-04-01T15:48:00Z,28.4330,-82.6670,10.0,1.66,307.58,3.23,'1111122,1111122,1111122' 
COMPS,ioos:station:USF.COMPS:ARP:1,2014-04-01T15:54:00Z,28.4330,-82.6670,10.0,2.47,314.98,3.82,'1111122,1111122,1111122' 
COMPS,ioos:station:USF.COMPS:ARP:1,2014-04-01T16:00:00Z,28.4330,-82.6670,10.0,1.87,316.2,3.33,'1111122,1111122,1111122' 
COMPS,ioos:station:USF.COMPS:ARP:1,2014-04-01T16:06:00Z,28.4330,-82.6670,10.0,1.76,312.54,3.03,'1111122,1111122,1111122' 
COMPS,ioos:station:USF.COMPS:ARP:1,2014-04-01T16:12:00Z,28.4330,-82.6670,10.0,2.28,309.18,3.42,'1111122,1111122,1111122' 
COMPS,ioos:station:USF.COMPS:ARP:1,2014-04-01T16:18:00Z,28.4330,-82.6670,10.0,2.62,308.86,3.62,'1111122,1111122,1111122' 
COMPS,ioos:station:USF.COMPS:ARP:1,2014-04-01T16:24:00Z,28.4330,-82.6670,10.0,2.52,313.34,3.33,'1111122,1111122,1111122' 
COMPS,ioos:station:USF.COMPS:ARP:1,2014-04-01T16:30:00Z,28.4330,-82.6670,10.0,2.38,309.07,3.62,'1111122,1111122,1111122' 
COMPS,ioos:station:USF.COMPS:ARP:1,2014-04-01T16:36:00Z,28.4330,-82.6670,10.0,2.21,316.2,3.52,'1111122,1111122,1111122' 
COMPS,ioos:station:USF.COMPS:ARP:1,2014-04-01T16:42:00Z,28.4330,-82.6670,10.0,2.83,308.36,4.11,'1111122,1111122,1111122' 
COMPS,ioos:station:USF.COMPS:ARP:1,2014-04-01T16:48:00Z,28.4330,-82.6670,10.0,3.38,310.95,4.6,'1111122,1111122,1111122' 
COMPS,ioos:station:USF.COMPS:ARP:1,2014-04-01T16:54:00Z,28.4330,-82.6670,10.0,3.26,308.91,4.41,'1111122,1111122,1111122' 
COMPS,ioos:station:USF.COMPS:ARP:1,2014-04-01T17:00:00Z,28.4330,-82.6670,10.0,4.04,308.68,4.8,'1111122,1111122,1111122' 
COMPS,ioos:station:USF.COMPS:ARP:1,2014-04-01T17:06:00Z,28.4330,-82.6670,10.0,3.97,306.88,4.8,'1111122,1111122,1111122' 
COMPS,ioos:station:USF.COMPS:ARP:1,2014-04-01T17:12:00Z,28.4330,-82.6670,10.0,3.61,310.61,4.99,'1111122,1111122,1111122' 
COMPS,ioos:station:USF.COMPS:ARP:1,2014-04-01T17:18:00Z,28.4330,-82.6670,10.0,3.17,308.52,4.9,'1111122,1111122,1111122' 
COMPS,ioos:station:USF.COMPS:ARP:1,2014-04-01T17:24:00Z,28.4330,-82.6670,10.0,3.5,309.77,5.58,'1111122,1111122,1111122' 
COMPS,ioos:station:USF.COMPS:ARP:1,2014-04-01T17:30:00Z,28.4330,-82.6670,10.0,3.29,313.92,4.5,'1111122,1111122,1111122' 
COMPS,ioos:station:USF.COMPS:ARP:1,2014-04-01T17:36:00Z,28.4330,-82.6670,10.0,2.77,316.82,4.8,'1111122,1111122,1111122' 
COMPS,ioos:station:USF.COMPS:ARP:1,2014-04-01T17:42:00Z,28.4330,-82.6670,10.0,2.4,316.89,3.82,'1111122,1111122,1111122' 
COMPS,ioos:station:USF.COMPS:ARP:1,2014-04-01T17:48:00Z,28.4330,-82.6670,10.0,2.71,311.95,4.21,'1111122,1111122,1111122' 
COMPS,ioos:station:USF.COMPS:ARP:1,2014-04-01T17:54:00Z,28.4330,-82.6670,10.0,2.77,311.29,4.11,'1111122,1111122,1111122' 
COMPS,ioos:station:USF.COMPS:ARP:1,2014-04-01T18:00:00Z,28.4330,-82.6670,10.0,3.48,308.43,4.5,'1111122,1111122,1111122' 
COMPS,ioos:station:USF.COMPS:ARP:1,2014-04-01T18:06:00Z,28.4330,-82.6670,10.0,2.46,312.56,4.11,'1111122,1111122,1111122' 
COMPS,ioos:station:USF.COMPS:ARP:1,2014-04-01T18:12:00Z,28.4330,-82.6670,10.0,2.49,315.05,4.11,'1111122,1111122,1111122' 
COMPS,ioos:station:USF.COMPS:ARP:1,2014-04-01T18:18:00Z,28.4330,-82.6670,10.0,2.53,312.21,3.62,'1111122,1111122,1111122' 
COMPS,ioos:station:USF.COMPS:ARP:1,2014-04-01T18:24:00Z,28.4330,-82.6670,10.0,2.82,305.4,4.01,'1111122,1111122,1111122' 
COMPS,ioos:station:USF.COMPS:ARP:1,2014-04-01T18:30:00Z,28.4330,-82.6670,10.0,2.99,313.61,4.6,'1111122,1111122,1111122' 
COMPS,ioos:station:USF.COMPS:ARP:1,2014-04-01T18:36:00Z,28.4330,-82.6670,10.0,3.36,309.62,4.7,'1111122,1111122,1111122' 
COMPS,ioos:station:USF.COMPS:ARP:1,2014-04-01T18:42:00Z,28.4330,-82.6670,10.0,2.56,313.55,3.91,'1111122,1111122,1111122' 
COMPS,ioos:station:USF.COMPS:ARP:1,2014-04-01T18:48:00Z,28.4330,-82.6670,10.0,2.18,318.47,3.62,'1111122,1111122,1111122' 
COMPS,ioos:station:USF.COMPS:ARP:1,2014-04-01T18:54:00Z,28.4330,-82.6670,10.0,2.92,304.51,3.72,'1111122,1111122,1111122' 
COMPS,ioos:station:USF.COMPS:ARP:1,2014-04-01T19:00:00Z,28.4330,-82.6670,10.0,2.91,303.73,3.62,'1111122,1111122,1111122' 
COMPS,ioos:station:USF.COMPS:ARP:1,2014-04-01T19:06:00Z,28.4330,-82.6670,10.0,2.53,303.64,3.23,'1111122,1111122,1111122' 
COMPS,ioos:station:USF.COMPS:ARP:1,2014-04-01T19:12:00Z,28.4330,-82.6670,10.0,2.8,302.73,3.33,'1111122,1111122,1111122' 
COMPS,ioos:station:USF.COMPS:ARP:1,2014-04-01T19:18:00Z,28.4330,-82.6670,10.0,2.82,307.69,3.13,'1111122,1111122,1111122' 
COMPS,ioos:station:USF.COMPS:ARP:1,2014-04-01T19:24:00Z,28.4330,-82.6670,10.0,2.86,305.45,3.42,'1111122,1111122,1111122' 
COMPS,ioos:station:USF.COMPS:ARP:1,2014-04-01T19:30:00Z,28.4330,-82.6670,10.0,2.59,305.97,3.03,'1111122,1111122,1111122' 
COMPS,ioos:station:USF.COMPS:ARP:1,2014-04-01T19:36:00Z,28.4330,-82.6670,10.0,2.75,306.49,3.23,'1111122,1111122,1111122' 